Volver al catálogo

STARLINK-5758

ActivoComunicacionesVLEO
NORAD 56037·PAYLOAD·🇺🇸 United States

Lanzado Mar 24, 2023 desde Cape Canaveral Space Force Station

Loading…

Próximos Pases (próximas 24 horas)

TLE

ActualizadoSource: CelesTrak SupGP

Época: Sep 14, 2026, 21:23 UTC

1 56037C 23042BD  26257.89145833  .00055805  00000+0  20209-2 0  2579
2 56037  43.0049  42.2395 0001986 276.4465 243.9650 15.27555546    11

Sigue STARLINK-5758 en tiempo real con AllMySat

Download on the App Store